Location: Kumla
(59.1265°N, 15.1401°E)
Time: 22:00:57
(UTC+01:00)

Vanguard 1 - Pass Details

Date: 06 December 2023
Orbit: 653 x 3825 km, 34.3° (Epoch: 04 March)

Event Time Altitude Azimuth Distance (km) Brightness Sun altitude
Rises 20:32:42 0° 250° (WSW) 6,566 14.8 -39.6°
Reaches altitude 10° 20:37:17 10° 241° (WSW) 5,937 14.3 -40.1°
Maximum altitude 20:53:20 32° 188° (S) 5,137 13.4 -41.9°
Enters shadow 20:55:45 32° 178° (S) 5,226 13.4 -42.2°
